DW8006 Weather Reports


time (UTC)temp
F
wind
direction
speed
knots
gust
knots
rain 1hr
in
rain 24hr
in
rain mn
in
humidity
%
barometer
mb
20260502163316 71 110 2.6 7.0 0.00 0.00 0.00 55 1015.5
20260502162816 71 86 1.7 6.1 0.00 0.00 0.00 53 1015.6
20260502161310 72 114 2.6 12.2 0.00 0.00 0.00 53 1015.6
20260502160309 72 88 3.5 9.6 0.00 0.00 0.00 51 1015.6
20260502152310 74 184 3.5 12.2 0.00 0.00 0.00 47 1016.2
20260502151310 74 94 2.6 7.0 0.00 0.00 0.00 46 1016.2
20260502150309 75 202 3.5 10.4 0.00 0.00 0.00 47 1016.5
20260502130306 75 184 4.3 12.2 0.00 0.00 0.00 49 1017.8
20260502123306 75 148 4.3 12.2 0.00 0.00 0.00 48 1018.0
20260502122306 74 83 3.5 10.4 0.00 0.00 0.00 50 1018.5
20260502121306 74 118 3.5 9.6 0.00 0.00 0.00 48 1018.6
20260502120308 74 84 4.3 12.2 0.00 0.00 0.00 49 1018.7
20260502120301 74 126 3.5 9.6 0.00 0.00 0.00 49 1018.8
20260502114300 74 131 3.5 8.7 0.00 0.00 0.00 46 1018.9
20260502113259 73 82 3.5 8.7 0.00 0.00 0.00 49 1018.9
20260502112800 73 188 2.6 7.8 0.00 0.00 0.00 50 1019.2
20260502111801 73 101 4.3 10.4 0.00 0.00 0.00 48 1019.3
20260502110300 73 67 1.7 7.0 0.00 0.00 0.00 51 1019.4
20260502105306 73 129 2.6 9.6 0.00 0.00 0.00 45 1019.6
20260502105300 73 137 2.6 7.0 0.00 0.00 0.00 49 1019.4
20260502103301 72 117 2.6 7.0 0.00 0.00 0.00 49 1019.6
20260502102758 72 82 5.2 10.4 0.00 0.00 0.00 48 1019.6
20260502101258 72 59 2.6 9.6 0.00 0.00 0.00 47 1019.7
20260502100255 72 93 2.6 6.1 0.00 0.00 0.00 45 1019.8
20260502091256 69 76 3.5 8.7 0.00 0.00 0.00 49 1020.3
20260502090255 67 109 4.3 9.6 0.00 0.00 0.00 53 1020.3
20260502070249 62 104 2.6 6.1 0.00 0.00 0.00 53 1020.8
20260502065250 62 98 5.2 8.7 0.00 0.00 0.00 53 1020.9
20260502064247 61 80 6.1 11.3 0.00 0.00 0.00 55 1020.8
20260502063248 60 70 6.1 10.4 0.00 0.00 0.00 54 1020.7
20260502062248 60 72 5.2 8.7 0.00 0.00 0.00 55 1020.9
20260502061248 60 74 5.2 8.7 0.00 0.00 0.00 54 1020.9
20260502060247 60 82 2.6 6.1 0.00 0.00 0.00 55 1021.0
20260502055248 59 78 2.6 7.0 0.00 0.00 0.00 55 1021.0
20260502054247 58 92 3.5 7.0 0.00 0.00 0.00 54 1020.9
20260502053248 58 86 3.5 7.8 0.00 0.00 0.00 56 1020.9
20260502052247 57 71 3.5 7.8 0.00 0.00 0.00 59 1020.9
20260502051247 55 85 4.3 8.7 0.00 0.00 0.00 60 1020.8
20260502050247 55 80 3.5 10.4 0.00 0.00 0.00 62 1020.6
20260502045247 54 101 5.2 8.7 0.00 0.00 0.00 63 1020.7
20260502044248 53 85 5.2 8.7 0.00 0.00 0.00 62 1020.7
20260502043748 53 94 5.2 10.4 0.00 0.00 0.00 61 1020.6
20260502042247 53 66 5.2 10.4 0.00 0.00 0.00 60 1020.7
20260502041247 53 109 6.1 10.4 0.00 0.00 0.00 61 1020.7
20260502040748 53 57 7.0 13.0 0.00 0.00 0.00 63 1020.7
20260502035247 52 79 4.3 8.7 0.00 0.00 0.00 62 1020.8
20260502034247 53 86 2.6 7.8 0.00 0.00 0.00 62 1020.9
20260502033749 52 120 2.6 7.8 0.00 0.00 0.00 62 1020.9
20260502032248 52 86 1.7 5.2 0.00 0.00 0.00 62 1021.0
20260502031247 52 82 1.7 3.5 0.00 0.00 0.00 62 1020.9
20260502030247 52 90 0.9 3.5 0.00 0.00 0.00 62 1021.0
20260502025747 52 85 0.0 1.7 0.00 0.00 0.00 63 1021.0
20260502024251 51 57 0.0 0.0 0.00 0.00 0.00 65 1021.1
20260502024247 51 105 0.0 2.6 0.00 0.00 0.00 64 1021.1
20260502022748 51 55 0.0 2.6 0.00 0.00 0.00 65 1021.1
20260502021247 51 76 0.0 3.5 0.00 0.00 0.00 65 1021.0
20260502020247 50 92 0.0 2.6 0.00 0.00 0.00 66 1021.0
20260502015245 50 38 0.0 2.6 0.00 0.00 0.00 67 1021.1
20260502014245 50 49 0.0 1.7 0.00 0.00 0.00 68 1021.1
20260502013245 49 49 0.9 2.6 0.00 0.00 0.00 68 1021.2
20260502012745 49 49 0.9 2.6 0.00 0.00 0.00 69 1021.3
20260502011246 49 50 0.9 2.6 0.00 0.00 0.00 69 1021.3
20260502010244 49 55 0.9 3.5 0.00 0.00 0.00 69 1021.4
20260502005247 49 83 0.0 1.7 0.00 0.00 0.00 70 1021.8
20260502005243 49 80 0.0 0.9 0.00 0.00 0.00 69 1021.7
20260502003243 49 84 0.9 2.6 0.00 0.00 0.00 69 1021.8
20260502002243 49 83 0.9 2.6 0.00 0.00 0.00 68 1021.9
20260502001241 49 79 1.7 2.6 0.00 0.00 0.00 68 1022.0
20260502000241 50 80 0.9 1.7 0.00 0.00 0.00 68 1022.1
20260501235743 50 80 1.7 2.6 0.00 0.00 0.00 67 1022.1
20260501234241 50 86 0.9 1.7 0.00 0.00 0.00 67 1022.3
20260501233241 50 86 0.9 1.7 0.00 0.00 0.00 67 1022.3
20260501232240 50 86 0.9 1.7 0.00 0.00 0.00 66 1022.3
20260501231235 51 85 0.9 1.7 0.00 0.00 0.00 65 1022.2
20260501230240 51 85 0.9 2.6 0.00 0.00 0.00 65 1022.3
20260501225239 51 85 1.7 2.6 0.00 0.00 0.00 64 1022.5
20260501224245 52 95 0.9 1.7 0.00 0.00 0.00 63 1022.5
20260501224241 52 96 0.9 1.7 0.00 0.00 0.00 63 1022.5
20260501222237 53 95 2.6 5.2 0.00 0.00 0.00 62 1022.5
20260501221238 53 90 2.6 5.2 0.00 0.00 0.00 60 1022.5
20260501220237 54 93 2.6 3.5 0.00 0.00 0.00 59 1022.6
20260501215236 54 78 2.6 2.6 0.00 0.00 0.00 58 1022.6
20260501214237 55 81 2.6 3.5 0.00 0.00 0.00 56 1022.6
20260501213237 55 82 1.7 2.6 0.00 0.00 0.00 55 1022.8
20260501212232 55 86 1.7 2.6 0.00 0.00 0.00 55 1022.7
20260501211236 55 86 1.7 2.6 0.00 0.00 0.00 55 1022.7
20260501210238 56 87 1.7 3.5 0.00 0.00 0.00 54 1022.8
20260501205240 57 86 2.6 3.5 0.00 0.00 0.00 52 1022.6
20260501205236 56 86 1.7 2.6 0.00 0.00 0.00 54 1022.6
20260501203236 57 86 2.6 3.5 0.00 0.00 0.00 52 1022.7
20260501202237 57 85 2.6 3.5 0.00 0.00 0.00 52 1022.9
20260501201233 57 84 2.6 3.5 0.00 0.00 0.00 51 1022.8
20260501200233 57 82 2.6 5.2 0.00 0.00 0.00 52 1022.9
20260501195238 58 78 3.5 4.3 0.00 0.00 0.00 50 1022.8
20260501194238 58 82 2.6 3.5 0.00 0.00 0.00 50 1022.9
20260501193238 58 80 2.6 3.5 0.00 0.00 0.00 49 1022.8
20260501192236 59 88 2.6 3.5 0.00 0.00 0.00 49 1022.9
20260501191733 59 81 1.7 3.5 0.00 0.00 0.00 48 1022.8
20260501190242 60 84 1.7 2.6 0.00 0.00 0.00 46 1022.8
20260501185232 60 81 2.6 5.2 0.00 0.00 0.00 46 1022.8
20260501184231 61 80 3.5 5.2 0.00 0.00 0.00 45 1022.8
20260501183743 61 90 3.5 7.0 0.00 0.00 0.00 45 1022.8
20260501182231 62 78 3.5 7.0 0.00 0.00 0.00 43 1022.9
20260501181231 63 94 5.2 10.4 0.00 0.00 0.00 42 1022.7
20260501180232 64 88 5.2 10.4 0.00 0.00 0.00 42 1022.8
20260501175232 64 74 5.2 9.6 0.00 0.00 0.00 39 1022.6
20260501174232 65 106 5.2 11.3 0.00 0.00 0.00 40 1022.8
20260501173232 65 82 7.8 13.0 0.00 0.00 0.00 37 1022.6
20260501172231 65 110 7.0 11.3 0.00 0.00 0.00 38 1022.7
20260501171232 66 82 8.7 13.0 0.00 0.00 0.00 37 1022.8
20260501170237 67 61 7.8 12.2 0.00 0.00 0.00 36 1022.9
20260501170232 66 76 7.0 13.0 0.00 0.00 0.00 36 1022.8
20260501164737 67 78 8.7 13.9 0.00 0.00 0.00 35 1022.9